Regional Weather Roundup
Issued by NWS Portland, ME

Home | Current Version | Previous Version | Text Only | Print | Product List | Glossary On
Versions: 1 2 3 4 5 6 7 8 9 10 11 12 13 14 15 16 17 18 19 20 21 22 23 24 25 26 27 28 29 30 31 32 33 34 35 36 37 38 39 40 41 42 43 44 45 46 47 48 49 50
000
ASUS41 KGYX 032010
RWRGYX
WEATHER ROUNDUP FOR MAINE AND NEW HAMPSHIRE
NATIONAL WEATHER SERVICE GRAY ME
300 PM EST TUE MAR 03 2015

MEZ002-005-006-010-012-015-018-020-021-024-026-027-029-032100-
MAINE

CITY           SKY/WX    TMP DP  RH WIND       PRES   REMARKS
PORTLAND       CLOUDY    28   7  41 S13       30.24F WCI  17
SANFORD        FAIR      28  -2  26 S6        30.22F
BAR HARBOR     FAIR      28  -2  26 W8        30.24F
WISCASSET      FAIR      28   1  31 SW7       30.25F
ROCKLAND       FAIR      28  -2  26 SW6       30.24F
FRYEBURG       FAIR      30  -9  18 S6        30.18F
LEWISTONAUBURN FAIR      28   0  29 S10       30.20F WCI  19
AUGUSTA        FAIR      28  -8  20 SW7       30.20F
WATERVILLE     FAIR      27  -6  24 SW8       30.17F
BANGOR         FAIR      25  -4  28 SW8       30.22F
GREENVILLE       N/A     23 -10  23 VRB6      30.05F
MILLINOCKET    FAIR      27  -5  24 W6        30.17F
HOULTON        FAIR      22  -9  25 SW13      30.14R WCI  10
PRESQUE ISLE   FAIR      21 -11  23 W7        30.13R
FRENCHVILLE    FAIR      17 -11  28 W10       30.07R WCI   5
CARIBOU        FAIR      21  -8  27 SW9       30.11R
$$

NHZ002-005-008-009-011-012-014-032100-
NEW HAMPSHIRE

CITY           SKY/WX    TMP DP  RH WIND       PRES   REMARKS
PORTSMOUTH     CLOUDY    29   2  31 VRB6      30.22F
ROCHESTER      FAIR      30  -2  25 VRB3      30.21F
NASHUA         FAIR      30   2  30 SE3       30.23F
MANCHESTER     CLOUDY    30   2  30 S9        30.21F
CONCORD        FAIR      28   0  29 S6        30.20F
LACONIA        FAIR      27  -2  28 SW8       30.16F
PLYMOUTH       FAIR      29   1  30 SE5       30.16F
BERLIN         FAIR      26  -4  27 S5        30.09F
WHITEFIELD     FAIR      25  -7  24 N3        30.10F
JAFFREY        FAIR      26   2  35 S8        30.17F
KEENE          FAIR      28   5  37 S14       30.19F WCI  17
LEBANON        FAIR      27   2  34 S12       30.14F WCI  17
MT WASHINGTON  PTSUNNY    9 -13  37 W30         N/A  WCI -14
$$

VTZ005-007-008-032100-
VERMONT

CITY           SKY/WX    TMP DP  RH WIND       PRES   REMARKS
ST JOHNSBURY     N/A     25  -3  29 MISG      30.11F
MONTPELIER     PTSUNNY   24   0  35 SE13      30.11F WCI  12
BURLINGTON     CLOUDY    25   3  38 S15G23    30.09F WCI  13
$$

MAZ007-012-024-CTZ003-RIZ002-NYZ038-NYZ072-032100-
SOUTHERN NEW ENGLAND AND NY

CITY           SKY/WX    TMP DP  RH WIND       PRES   REMARKS
BOSTON         CLOUDY    30   6  36 S8        30.26F
WORCESTER      PTSUNNY   26   5  40 SW8       30.18F
NANTUCKET      FAIR      26   8  46 SW6       30.32F
PROVIDENCE     CLOUDY    29  12  49 S10       30.28F WCI  20
HARTFORD       CLOUDY    30   6  36 S10       30.26F
ALBANY         CLOUDY    28   6  39 S14       30.18F WCI  17
NEW YORK CITY  CLOUDY    30  18  60 S15       30.27F WCI  19
$$

ANZ081-ANZ082-ANZ150-NHZ014-MEZ023>029-032100-
COASTAL MARINE OBSERVATIONS

STATION/POSITION TIME  TEMP    WIND        PRES    WAVE
                       AIR SEA DIR/SP/G            HT/PER
                 (UTC) (F)     (DEG/KT/KT) (MB)    (FT/S)
MOUNT DESERT ROC 2000   24                 1024.6F
MATINICUS ROCK   2000   25     260/ 12/ 14 1024.7F
WELLS            1900   27     180/ 13/ 15 1024.4F
ISLE OF SHOALS   2000   26     170/ 12/ 13 1023.6F
JEFFREYS LEDGE   1951      40                N/A     2/11
CASHES LEDGE BUO 1850   26 38              1025.4    2/ 4
$$

.............KEY..............
   WCI - WIND CHILL
   TC  - TEMPERATURE IN CELSIUS
   VSB - VISIBILITY IN MILES
   HX  - HEAT INDEX
   FAIR- INDICATES FEW OR NO CLOUDS BELOW 12,000 FT, WITH NO
         SIGNIFICANT WEATHER AND/OR OBSTRUCTIONS TO VISIBILITY.




USA.gov is the U.S. government's official web portal to all federal, state and local government web resources and services.